GFSNIL_sfc_wetblb_276.txt.gz
Wetbulb
56.16 54.30 54.64 54.86 54.59 54.32 54.78 55.78 57.28 57.53 57.33 57.46 57.80 57.86 57.98 57.34 57.36 57.80 57.10 56.44 58.58 56.52
53.94 54.89 54.34 54.96 55.17 54.37 55.41 55.37 56.55 56.72 56.61 56.71 57.12 57.21 56.17 54.66 56.26 57.72 58.38 58.03 56.64 54.96
53.22 53.01 52.06 52.03 52.36 53.21 54.38 55.23 55.41 55.58 55.68 55.81 55.83 55.84 55.42 53.83 51.92 51.93 53.71 54.00 52.46 53.38
51.39 51.36 51.90 51.66 51.23 52.93 53.87 54.30 53.74 53.92 53.71 54.07 53.68 54.58 53.57 50.81 49.89 50.31 51.18 52.56 53.83 55.08
52.12 51.64 50.87 49.92 49.71 49.67 49.78 51.61 53.01 52.38 50.05 48.92 49.74 53.20 52.61 51.82 51.69 51.35 52.41 53.87 54.81 54.24
49.73 48.19 49.14 49.30 49.34 49.49 48.24 50.45 51.98 51.76 52.15 51.31 51.71 52.21 53.81 53.92 53.62 53.40 52.47 53.70 54.63 54.13
48.83 47.98 47.55 49.90 49.03 49.33 49.92 47.50 49.17 51.92 52.02 52.45 52.58 51.84 52.49 53.06 53.52 53.49 53.39 53.97 54.40 54.55
48.19 48.20 48.78 48.64 47.86 48.43 49.16 49.96 51.35 51.21 51.09 51.64 51.44 50.11 51.72 52.42 52.37 52.23 52.55 53.69 53.81 54.51
48.50 48.75 50.21 50.79 51.12 50.95 50.03 51.35 50.43 51.30 49.88 50.24 50.51 46.49 47.15 49.46 50.90 51.51 51.38 51.48 53.04 52.94
49.72 47.83 48.19 49.23 48.47 49.48 49.27 51.69 51.01 50.82 50.88 51.32 52.09 46.06 46.21 48.29 51.41 50.37 50.55 50.52 50.65 48.98
50.92 48.49 48.38 48.51 48.24 48.27 48.88 48.03 48.07 48.34 48.37 48.46 49.40 45.82 45.45 47.51 48.73 48.26 48.35 48.77 49.43 50.57
51.06 50.58 48.57 50.28 50.58 49.77 50.97 50.49 50.01 49.87 49.16 48.71 49.09 44.37 44.52 48.72 49.70 48.52 48.49 49.27 49.43 54.20
51.91 50.49 49.18 51.98 52.06 51.15 52.82 51.97 51.55 50.02 49.81 48.53 52.98 43.30 43.59 48.38 49.67 49.96 50.00 53.80 54.54 45.86
52.04 52.24 53.56 53.92 53.09 52.34 49.51 49.38 50.33 50.66 53.77 54.46 52.52 51.07 43.36 43.97 52.90 52.12 54.41 53.33 53.00 52.76

GFSNIL_sfc_wetblb_279.txt.gz
Wetbulb
55.18 54.33 53.94 54.71 53.94 53.42 53.55 55.19 57.28 57.42 57.73 57.56 57.74 57.91 57.83 56.70 57.00 58.47 59.08 57.73 58.39 56.98
54.68 54.33 53.24 53.65 53.71 53.97 55.12 54.84 55.55 56.78 56.66 56.69 56.90 56.51 56.46 55.13 55.16 57.09 58.28 58.15 58.08 56.36
53.03 53.03 52.91 52.90 52.82 52.66 54.14 54.97 55.26 55.46 55.54 55.89 55.62 55.60 55.93 54.30 54.22 54.39 54.93 55.88 55.36 55.95
51.43 51.27 51.54 51.31 51.43 51.57 52.79 54.11 53.02 53.41 53.14 53.05 54.01 54.93 54.62 53.02 53.59 52.65 53.67 55.74 55.65 55.74
49.82 50.47 51.49 50.90 50.10 51.24 51.65 53.09 53.02 53.35 52.97 52.95 52.18 54.50 54.35 53.57 54.40 53.65 53.62 54.45 55.25 54.91
48.49 50.26 50.88 50.18 50.76 50.97 51.49 51.88 52.61 53.03 52.98 52.21 53.08 53.35 53.17 53.42 53.36 53.94 54.35 54.23 54.50 54.74
51.16 51.65 51.69 51.48 50.02 50.85 51.92 51.26 51.90 52.26 52.22 53.13 52.60 51.91 52.42 53.09 53.06 53.57 53.83 54.79 54.66 54.12
50.44 51.94 50.30 50.38 51.52 52.26 52.06 51.47 52.03 52.15 52.98 53.21 51.75 50.36 51.04 52.73 52.56 53.26 53.62 53.74 54.06 54.35
50.33 51.28 50.22 52.17 52.57 53.00 52.49 52.33 52.31 51.77 51.90 52.17 51.45 47.14 48.06 50.96 51.54 52.26 51.98 51.90 54.04 54.14
50.98 49.45 50.73 51.16 50.52 51.03 50.55 50.27 49.37 50.22 52.13 52.13 51.76 46.44 47.04 49.02 51.76 51.72 52.60 52.56 52.47 52.92
50.80 50.95 50.54 52.41 52.57 52.47 52.81 52.43 49.88 50.34 50.80 50.80 49.57 45.92 45.69 47.80 51.21 51.50 52.08 53.31 53.75 53.95
52.49 52.67 53.03 52.60 53.31 53.86 53.58 52.19 51.58 52.10 52.76 52.53 52.32 44.78 44.77 49.75 52.18 53.05 53.98 54.85 54.67 54.84
53.90 53.15 52.13 52.79 53.02 53.49 53.24 53.59 54.04 54.09 54.83 49.61 53.02 43.58 44.34 46.27 53.89 55.08 54.89 55.62 54.41 46.82
54.63 54.49 54.25 54.81 55.40 55.03 54.35 55.02 54.96 55.25 56.47 56.33 53.65 51.77 44.36 43.89 54.83 54.79 54.33 52.97 53.33 53.01

GFSNIL_sfc_wetblb_285.txt.gz
Wetbulb
47.98 47.03 47.10 46.82 47.28 47.10 47.61 49.60 50.17 50.89 53.31 54.74 54.68 53.78 51.76 51.39 51.76 52.33 51.47 50.98 51.00 50.07
46.94 46.55 46.76 47.24 47.65 46.58 47.49 51.85 51.65 51.70 52.46 53.66 53.43 52.36 50.45 49.28 49.47 50.21 50.76 50.45 50.40 51.48
46.41 47.11 48.44 48.72 46.51 48.74 47.98 51.51 51.73 50.25 49.92 51.43 51.99 51.49 49.18 47.88 48.67 49.02 50.03 51.13 50.36 49.61
48.35 48.92 48.03 46.65 48.32 49.04 49.53 51.11 51.14 50.05 49.63 49.49 49.91 50.14 49.87 48.99 50.78 49.81 50.65 50.56 49.90 49.72
49.25 48.25 49.21 48.06 48.63 49.88 48.77 48.52 50.02 49.66 49.15 49.12 49.03 49.49 49.16 51.42 51.20 50.97 50.47 49.95 50.25 52.07
47.03 46.83 46.38 47.94 49.04 48.13 47.95 47.80 48.18 48.49 48.72 48.05 47.87 47.91 48.58 49.47 49.83 49.60 51.41 51.12 49.47 48.83
46.99 47.14 46.96 47.48 48.39 49.82 49.18 48.45 48.65 48.95 48.84 47.55 46.62 47.22 48.11 49.85 48.88 49.80 51.89 50.65 49.64 48.66
48.95 48.36 48.93 50.44 49.05 47.94 47.50 47.92 50.11 49.64 48.96 46.37 46.69 47.34 46.45 47.53 48.49 47.72 48.51 50.01 49.93 49.18
48.61 48.53 48.65 49.91 50.31 49.93 49.42 49.56 47.89 47.46 47.92 46.19 47.47 47.33 48.80 49.56 46.48 48.51 48.69 48.35 48.79 49.33
50.58 48.54 48.63 49.55 49.14 48.25 47.87 48.73 48.91 49.26 49.56 47.89 47.27 46.89 47.10 49.62 48.70 47.64 50.17 50.07 49.74 48.84
49.64 48.49 49.12 49.36 49.55 47.74 47.53 47.22 49.25 48.06 47.56 46.44 45.60 46.48 45.85 47.76 48.72 47.51 47.43 48.15 48.01 47.42
50.20 49.38 48.91 47.73 48.49 49.67 47.79 47.69 47.98 48.45 46.94 45.82 44.36 45.54 45.01 45.32 47.69 48.51 47.96 47.68 45.77 47.03
50.33 49.69 49.60 51.22 51.60 51.78 51.29 50.87 50.14 49.47 47.52 48.90 45.46 44.11 44.40 44.65 46.51 47.98 48.61 46.75 44.74 46.84
51.28 49.55 50.41 52.07 51.45 52.27 49.90 51.05 49.44 51.37 48.93 47.79 46.23 46.05 44.19 45.05 48.03 47.93 48.36 48.21 47.27 47.31

GFSNIL_sfc_wetblb_291.txt.gz
Wetbulb
44.21 46.04 43.97 43.67 45.57 43.30 44.27 48.87 51.96 52.03 52.98 53.37 52.82 50.02 49.33 50.14 48.43 48.43 48.32 48.98 48.60 48.12
44.90 44.90 44.95 46.13 44.99 48.46 49.91 50.86 50.76 50.74 51.59 52.49 51.81 50.06 49.93 49.30 47.45 48.61 48.12 47.67 48.17 47.69
44.90 45.31 45.58 44.81 45.41 49.23 48.98 48.76 47.95 48.02 50.25 49.26 49.79 50.01 50.22 49.67 50.22 47.99 47.67 47.71 47.67 46.73
44.93 44.93 44.92 44.57 45.42 45.87 45.62 46.82 47.07 47.29 47.74 47.93 47.95 48.42 50.72 50.62 50.60 50.48 47.85 47.72 47.74 46.91
46.29 44.96 44.38 44.59 45.15 45.31 45.31 45.80 46.32 45.94 45.41 45.99 46.61 47.27 48.34 49.74 50.36 50.30 49.51 49.74 47.59 47.43
46.70 48.22 48.85 47.17 44.56 44.94 45.78 46.03 46.09 45.40 45.11 44.94 45.78 46.21 46.84 47.43 48.61 47.40 47.08 46.25 45.40 45.18
45.10 47.34 46.46 48.30 46.68 45.50 45.43 45.57 45.57 45.00 44.98 45.23 45.46 46.27 46.36 46.63 46.63 46.99 47.38 46.93 46.41 46.06
46.95 46.50 48.35 48.94 47.51 48.64 47.82 47.36 47.13 45.68 44.64 44.31 45.57 47.29 45.08 45.41 45.57 45.68 46.20 47.17 48.02 47.75
48.36 49.47 47.59 49.29 50.12 49.31 48.15 48.62 49.06 47.86 44.66 43.91 46.68 47.24 49.62 47.00 45.18 45.90 45.43 45.57 46.07 46.75
47.38 48.93 47.82 47.36 47.57 46.79 47.04 48.30 48.02 45.27 44.14 43.76 44.64 46.18 46.24 48.87 45.41 44.84 44.57 44.43 44.90 46.50
49.91 49.42 48.85 48.34 46.74 45.58 45.16 44.51 43.60 43.41 42.96 42.50 44.15 45.67 44.61 45.97 45.47 45.43 45.56 45.36 45.36 44.42
50.04 49.07 49.56 48.82 47.09 46.07 45.11 45.07 44.45 43.73 44.05 43.02 42.77 43.83 43.51 43.90 43.56 45.08 45.87 46.74 43.65 43.67
48.34 47.33 46.29 46.82 47.43 50.02 48.53 46.01 46.77 46.45 44.13 45.98 41.98 42.21 42.56 43.70 44.92 44.78 45.61 46.54 46.75 47.26
48.21 47.27 46.06 43.51 44.34 45.40 49.25 46.51 44.87 44.93 43.84 41.57 40.66 39.07 41.61 41.67 41.52 44.36 46.43 47.35 45.33 45.51